User: anonymous
Location: Vancouver
(49.2500°N, 123.1330°W)
Time: 14:28:39
(UTC-07:00)
Language:

SO-67 - Orbit

View from above orbital plane
View from above orbital plane
View from above satellite
View from above satellite

Ground track
Ground track

The orbit data is extracted from the following two-line orbital elements,

1 35870U 09049F   14259.48709691  .00009943  00000-0  30196-3 0  5106
2 35870 097.1584 277.9200 0003627 114.3492 023.6924 15.34261569278047
Epoch (UTC): 16 September 2014 11:41:25
Eccentricity: 0.0003627
inclination: 97.1584°
perigee height: 460 km
apogee height: 465 km
right ascension of ascending node: 277.9200°
argument of perigee: 114.3492°
revolutions per day: 15.34261569
mean anomaly at epoch: 23.6924°
orbit number at epoch: 27804

The dashed part of the orbit path shows where the satellite is in the earth's shadow,  

DLR